Weather in Shentala

Russia / Samara Oblast     54°26′01″N   51°27′58″E
temp.,
°C
wind,
m/s
gust,
m/s
humid.,
%
clouds,
%
prec.,
mm/h
press.,
hPa
HPBL,
m
28 february, sun
sun2801:00−12nw5896100 0.1 999198
04:00−13nnw5996100 0.1 1001260
07:00−13nnw51095100 0.1 1003309
10:00−13nnw6994100 0.2 1004385
13:00−12nnw5893100 0.1 1006424
16:00−12nnw5892100 0.2 1008487
19:00−14nnw4896100 0.1 1011279
22:00−16nnw489796 0.2 1013177
1 march, mon
mon101:00−19nnw339995 0.0 101548
04:00−20nnw3310088 0.1 101763
07:00−22nnw239970 0.0 101828
10:00−20nnw359765 0.0 1021191
13:00−16nw359270 0.0 1021291
16:00−15nw359381 0.0 1021351
19:00−20wnw2210078 0.0 102120
22:00−21sw239940 0.0 102020
2 march, tue
tue201:00−21ssw46999 0.0 101889
04:00−17ssw5109752 0.0 1015229
07:00−16s61396100 0.0 1011284
10:00−13ssw71394100 0.5 1008393
13:00−8ssw81394100 0.8 1005531
16:00−6ssw81394100 1.6 1002606
19:00−4s71295100 1.1 999507
22:00−3ssw61196100 1.9 998382
3 march, wed
wed301:00−2w4897100 0.4 997373
04:00−3w599799 0.6 997384
07:00−5wnw4896100 0.2 998347
10:00−4nw4795100 0.3 1000413
13:00−3nw4694100 0.1 1002435
16:00−3nw589299 0.1 1003559
19:00−5nw499699 0.2 1004542
22:00−6nw389798 0.4 1006229
4 march, thu
thu401:00−7nw5119596 0.4 1007378
04:00−11nw499697 0.5 1009192
07:00−14wnw479985 0.0 1011104
10:00−11w479687 0.1 1012237
13:00−8wsw599497 0.0 1011377
16:00−6sw7129197 0.1 1009537
19:00−5sw91692100 0.1 1007741
22:00−3sw91793100 0.6 1005798